Location: Unnamed
(23.5608°S, 46.6833°W)
Time: 11:35:09
(UTC-03:00)

X-37B - Visible Passes

Search period start: 01 December 2022 00:00
Search period end: 11 December 2022 00:00
Orbit: 277 x 277 km, 45.0° (Epoch: 01 November)

Date Brightness Start Highest point End Pass type
(mag) Time Alt. Az. Time Alt. Az. Time Alt. Az.
05 Dec 2.8 04:38:49 10° NNE 04:40:01 13° NE 04:41:12 10° ENE visible
06 Dec 1.3 04:38:20 10° NNW 04:40:35 32° NE 04:42:52 10° ESE visible
07 Dec -0.1 04:38:51 11° NW 04:41:13 76° SW 04:43:42 10° SE visible
08 Dec 1.5 04:39:45 10° W 04:41:54 26° SW 04:44:06 10° SSE visible
09 Dec 3.5 03:10:24 11° E 03:10:24 11° E 03:10:34 10° ESE visible
09 Dec 2.6 04:41:31 10° WSW 04:42:42 12° SW 04:43:52 10° S visible
10 Dec 3.4 03:11:06 14° SE 03:11:06 14° SE 03:11:35 10° SE visible
